Location: Newark
(46.7114°N, 6.1944°E)
Time: 06:25:18
(UTC+00:00)

Starlink Launch 2 leader - Visible Passes

Search period start: 06 December 2019 00:00
Search period end: 16 December 2019 00:00
Orbit: 279 x 281 km, 53.0° (Epoch: 13 November)

Date Brightness Start Highest point End Pass type
(mag) Time Alt. Az. Time Alt. Az. Time Alt. Az.
06 Dec 3.7 05:14:06 32° NE 05:14:06 32° NE 05:16:06 10° E visible
07 Dec 3.0 05:16:05 49° ENE 05:16:05 49° ENE 05:18:13 10° ESE visible
08 Dec 2.7 05:18:06 60° SE 05:18:06 60° SE 05:20:11 10° ESE visible
09 Dec 3.4 05:20:11 34° S 05:20:11 34° S 05:21:59 10° SE visible
10 Dec 4.4 05:22:20 18° S 05:22:20 18° S 05:23:28 10° SSE visible
